星链-3232 (STARLINK-3232 )

导读

STARLINK-3232是美国太空探索技术公司(SpaceX)星链(Starlink)互联网星座中的一颗低轨卫星,于美国东部时间2022年1月6日发射入轨。作为星链项目批量部署的卫星之一,它运行在近地轨道,旨在为全球提供高速、低延迟的宽带互联网接入服务,推进全球覆盖的卫星通信网络构建,助力偏远地区网络覆盖与应急通信等场景应用。

Basic Information
目录编号:
50809
目录名称:
STARLINK-3232
国际标识:
2022-001G
轨道中心:
EARTH
卫星名称:
星链-3232
卫星全名:
星链-3232 (STARLINK-3232 )
卫星状态:
在轨 (已飞行1624 天)
发射日期:
2022-01-06 UTC
国别 :
美国 (US)
星等 :
--
Orbit Information
数据来源 国际轨道数据 AOE轨道数据
星历时间 2026-06-17T08:54:43+0800
23小时前
查看轨道信息
2026-06-12T01:00:00+0800
6天前
查看轨道信息
半长轴 6917.929km 6917.877km
偏心率 0.000128 0.0000726
轨道倾角 53.161° 53.161°
近地点辐角 91.925° 153.305°
升交点赤经 73.034° 96.993°
平近点角 268.189° 41.303°
近地点 538.906km 539.237km
远地点 540.678km 540.243km
周期 95.439分钟 95.437分钟
每日圈数 15.088244 15.088413
Detailed Information
固有亮度:
5
最大亮度:
2.5
卫星平台:
Starlink v1.5
覆盖范围:
全球
运营商:
太空探索技术公司
运营商所在国:
美国
制造商(研发单位):
太空探索技术公司
制造商所在国:
美国
使用方式:
暂无
Satellite Introduction
星链(Starlink)计划是由太空探索技术公司(SpaceX)提出的一个巨型低轨卫星互联网星座项目,计划在2019年至2024年间在太空搭建由约1.2万颗卫星组成的“星链”网络,其中1584颗将部署在地球上空550千米处的近地轨道,并从2020年开始工作。该卫星仍在工作。
2D Orbit Map
3D Orbit Map
Orbit Altitude Analysis Chart
Orbit Inclination Analysis Chart
Orbit Comprehensive Analysis Chart
View Comprehensive Chart